Regional Weather Roundup
Issued by NWS Charleston, WV

Home | Current Version | Previous Version | Text Only | Print | Product List | Glossary Off
Versions: 1 2 3 4 5 6 7 8 9 10 11 12 13 14 15 16 17 18 19 20 21 22 23 24 25 26 27

000
ASUS41 KRLX 200210
RWRRLX
West Virginia Regional Weather Roundup
National Weather Service Charleston WV
1000 PM EDT SAT APR 19 2014

Note: "fair" indicates few or no clouds below 12,000 feet with no
significant weather and/or obstructions to visibility.

WVZ003-200300-
Northern Panhandle of West Virginia

CITY           SKY/WX    TMP DP  RH WIND       PRES   REMARKS
WHEELING       MOCLDY    55  21  26 NE7       30.28R
$$

WVZ009-200300-
Northwest West Virginia

CITY           SKY/WX    TMP DP  RH WIND       PRES   REMARKS
PARKERSBURG    MOCLDY    57  27  31 NE7       30.28R
$$

WVZ006-200300-
Western West Virginia

CITY           SKY/WX    TMP DP  RH WIND       PRES   REMARKS
HUNTINGTON     MOCLDY    61  31  32 NE7       30.22R
$$

WVZ015-200300-
West Central West Virginia

CITY           SKY/WX    TMP DP  RH WIND       PRES   REMARKS
CHARLESTON     CLOUDY    61  33  35 NE5       30.23R
$$

WVZ031-200300-
North Central West Virginia

CITY           SKY/WX    TMP DP  RH WIND       PRES   REMARKS
CLARKSBURG     CLOUDY    52  26  36 NE6       30.26R
MORGANTOWN     CLOUDY    56  22  26 NE5       30.29R
$$

WVZ035-042-045-200300-
South Central West Virginia

CITY           SKY/WX    TMP DP  RH WIND       PRES   REMARKS
BECKLEY        CLOUDY    56  34  43 SE3       30.25R
BLUEFIELD      CLOUDY    56  36  47 SE5       30.26R
LEWISBURG      CLOUDY    55  34  46 CALM      30.26R
$$

WVZ047-200300-
Northern Mountains of West Virginia

CITY           SKY/WX    TMP DP  RH WIND       PRES   REMARKS
ELKINS         CLOUDY    47  32  56 CALM      30.27R
$$

WVZ052-200300-
Eastern Panhandle of West Virginia

CITY           SKY/WX    TMP DP  RH WIND       PRES   REMARKS
MARTINSBURG    MOCLDY    55  26  32 N5        30.30R
PETERSBURG     MOCLDY    53  43  69 NW5       30.29R
$$



USA.gov is the U.S. government's official web portal to all federal, state and local government web resources and services.